weather.gov     
National Weather Service

Terminal Aerodrome Forecast
NWS Homepage
This page is being discontinued on March 12, 2014.
The same data is available at this site. Please update your bookmarks.
Thank you, and we apologize for the inconvenience.
Please send an email to SR-SRH.Webmaster@noaa.gov with any concerns.


Current Version
Previous Version:    01  02  03  04  05  06  07  08  09  10  11  12  13  14  15  16  17  18  19  20  21  22  23  24  25  26  27  28  29  
[Printable]
179
FTUS42 KMLB 191700 RRA
TAFVRB
TAF
KVRB 191742Z 1918/2018 09008KT P6SM VCSH SCT025 SCT060 OVC150
      TEMPO 1919/1922 3SM TSRA BKN025CB
     FM200000 04005KT P6SM -SHRA OVC030
     FM201400 VRB05KT P6SM -SHRA BKN030 OVC060=


U.S. Dept. of Commerce
NOAA National Weather Service
1325 East West Highway
Silver Spring, MD 20910
E-mail: w-nws.webmaster@noaa.gov
Page last modified: May 16, 2007
NATIONAL WEATHER SERVICE: for Safety, for Work, for Fun - FOR LIFE